User: anonymous   Login
Location: Unspecified
(0.0000°N, 0.0000°E)
Time: 15:13:52
(UTC+00:00)
Language:

APRIZESAT 7 - Orbit

View from above orbital plane
View from above orbital plane
View from above satellite
View from above satellite

Ground track
Ground track

The orbit data is extracted from the following two-line orbital elements,

1 39416U 13066A   18051.94686135 +.00000059 +00000-0 +13166-4 0  9991
2 39416 097.6003 095.7320 0042005 153.3743 206.9642 14.83777854230089
Epoch (UTC): 20 February 2018 22:43:28
Eccentricity: 0.0042005
inclination: 97.6003°
perigee height: 588 km
apogee height: 647 km
right ascension of ascending node: 95.7320°
argument of perigee: 153.3743°
revolutions per day: 14.83777854
mean anomaly at epoch: 206.9642°
orbit number at epoch: 23008

The dashed part of the orbit path shows where the satellite is in the earth's shadow,  

DLR